Location: Breungeshain
(50.5000°N, 9.2000°E)
Time: 09:48:58
(UTC+00:00)

ISS - Pass Details

Date: 19 May 2017
Orbit: 401 x 407 km, 51.6° (Epoch: 25 September)

Event Time Altitude Azimuth Distance (km) Brightness Sun altitude
Rises 02:44:12 0° 282° (WNW) 2,354 -0.3 -6.6°
Reaches altitude 10° 02:46:19 10° 283° (WNW) 1,488 -1.3 -6.3°
Maximum altitude 02:49:39 86° 8° (N) 418 -3.7 -5.9°
Drops below altitude 10° 02:52:58 10° 102° (ESE) 1,475 -0.4 -5.5°
Sets 02:55:03 0° 103° (ESE) 2,332 0.6 -5.3°
